Location: Narragansett
(41.4496°N, 71.4488°W)
Time: 04:19:15
(UTC+00:00)

Nauka - Pass Details

Date: 26 September 2021
Orbit: 417 x 423 km, 51.6° (Epoch: 19 October)

Event Time Altitude Azimuth Distance (km) Brightness Sun altitude
Rises 23:34:18 0° 298° (WNW) 2,363 ? -11.8°
Reaches altitude 10° 23:37:09 10° 325° (NW) 1,500 ? -12.3°
Maximum altitude 23:39:05 14° 360° (N) 1,260 ? -12.7°
Drops below altitude 10° 23:41:02 10° 35° (NE) 1,502 ? -13.1°
Enters shadow 23:41:30 - 42° (NE) 1,618 ? -13.1°
